Change the Weather History Date:

Friday, November 9, 2012

  Actual Average Record
Temperature  
Mean Temperature 37 °F 41 °F  
Max Temperature 45 °F 49 °F 72 °F (1975)
Min Temperature 28 °F 33 °F 13 °F (1971)
Degree Days  
Heating Degree Days 28 24  
Month to date heating degree days 274 202  
Since 1 July heating degree days 936 990  
Cooling Degree Days 0 0  
Month to date cooling degree days 0 0  
Year to date cooling degree days 453 314  
Moisture  
Dew Point 25 °F    
Average Humidity 70    
Maximum Humidity 92    
Minimum Humidity 48    
Precipitation  
Precipitation 0.00 in 0.13 in 5.31 in (1972)
Month to date precipitation 0.06 1.22  
Year to date precipitation 41.88 41.52  
Sea Level Pressure  
Sea Level Pressure 30.12 in    
Wind  
Wind Speed 11 mph (NW)    
Max Wind Speed 21 mph    
Max Gust Speed 31 mph    
Visibility 10 miles    
Events      
T = Trace of Precipitation, MM = Missing Value Source: NWS Daily Summary

Daily Weather History Graph

Daily Weather History Graph

Search for Another Location

Airport or City:

Trip Planner

Search our weather history database for the weather conditions in past years. The results will help you decide how hot, cold, wet, or windy it might be!

Date:

Astronomy

Nov. 09, 2012 Rise Set
Actual Time 6:42 AM EST 4:47 PM EST
Civil Twilight 6:13 AM EST 5:16 PM EST
Nautical Twilight 5:40 AM EST 5:49 PM EST
Astronomical Twilight 5:08 AM EST 6:22 PM EST
Moon 1:36 AM EST (11/9) 2:01 PM EST (11/9)
Length of Visible Light 11h 03m
Length of Day
10h 04m
Waning Crescent, 23% of the Moon is Illuminated
Nov 9
Waning Crescent
Nov 13
New
Nov 20
First Quarter
Nov 28
Full
Dec 6
Last Quarter

Hourly Weather History & Observations

Time (EST) Temp. Windchill Dew Point Humidity Pressure Visibility Wind Dir Wind Speed Gust Speed Precip Events Conditions
12:53 AM 28.9 °F 18.6 °F 23.0 °F 78% 29.98 in 10.0 mi NW 12.7 mph 23.0 mph N/A   Clear
1:53 AM 28.9 °F 18.2 °F 21.9 °F 75% 29.99 in 10.0 mi NW 13.8 mph 21.9 mph N/A   Clear
2:53 AM 28.0 °F 17.5 °F 21.0 °F 75% 30.00 in 10.0 mi NW 12.7 mph 19.6 mph N/A   Clear
3:53 AM 28.9 °F 18.2 °F 19.9 °F 69% 30.00 in 10.0 mi NW 13.8 mph 24.2 mph N/A   Clear
4:53 AM 30.0 °F 18.3 °F 21.0 °F 69% 30.03 in 10.0 mi NW 17.3 mph 25.3 mph N/A   Clear
5:53 AM 30.0 °F 18.3 °F 21.9 °F 72% 30.05 in 10.0 mi NW 17.3 mph 25.3 mph N/A   Clear
6:53 AM 30.0 °F 18.7 °F 23.0 °F 75% 30.07 in 10.0 mi NW 16.1 mph 23.0 mph N/A   Clear
7:53 AM 32.0 °F 21.6 °F 24.1 °F 73% 30.10 in 10.0 mi NW 15.0 mph 23.0 mph N/A   Clear
8:53 AM 35.1 °F 26.4 °F 24.1 °F 64% 30.11 in 10.0 mi NW 12.7 mph 25.3 mph N/A   Clear
9:53 AM 37.9 °F 29.2 °F 23.0 °F 55% 30.12 in 10.0 mi NNW 15.0 mph 28.8 mph N/A   Clear
10:53 AM 39.9 °F 31.1 °F 21.9 °F 49% 30.14 in 10.0 mi NW 17.3 mph 25.3 mph N/A   Clear
11:53 AM 42.1 °F 33.9 °F 24.1 °F 49% 30.14 in 10.0 mi NW 17.3 mph 24.2 mph N/A   Clear
12:53 PM 45.0 °F 38.5 °F 26.1 °F 48% 30.13 in 10.0 mi WNW 13.8 mph 21.9 mph N/A   Overcast
1:53 PM 43.0 °F 35.7 °F 28.0 °F 56% 30.12 in 10.0 mi NNW 15.0 mph 23.0 mph N/A   Mostly Cloudy
2:53 PM 43.0 °F 35.4 °F 28.0 °F 56% 30.13 in 10.0 mi NW 16.1 mph 21.9 mph N/A   Mostly Cloudy
3:53 PM 43.0 °F 36.0 °F 28.0 °F 56% 30.14 in 10.0 mi WNW 13.8 mph 20.7 mph N/A   Clear
4:53 PM 39.9 °F 33.9 °F 30.0 °F 68% 30.15 in 10.0 mi NW 9.2 mph 18.4 mph N/A   Clear
5:53 PM 37.9 °F 33.5 °F 30.0 °F 73% 30.17 in 10.0 mi NW 5.8 mph - N/A   Clear
6:53 PM 37.0 °F 31.6 °F 30.0 °F 76% 30.19 in 10.0 mi NW 6.9 mph - N/A   Clear
7:53 PM 36.0 °F 32.1 °F 30.0 °F 79% 30.19 in 10.0 mi NNW 4.6 mph - N/A   Clear
8:53 PM 33.1 °F 30.0 °F 28.9 °F 85% 30.20 in 10.0 mi West 3.5 mph - N/A   Clear
9:53 PM 30.0 °F - 27.0 °F 88% 30.22 in 10.0 mi Calm Calm - N/A   Clear
10:53 PM 28.9 °F - 27.0 °F 92% 30.22 in 10.0 mi Calm Calm - N/A   Clear
11:53 PM 30.0 °F 26.5 °F 27.0 °F 88% 30.22 in 10.0 mi West 3.5 mph - N/A   Clear